Regional Weather Roundup
Issued by NWS Upton, NY

Current Version | Previous Version | Text Only | Print | Product List | Glossary On
Versions: 1 2 3 4 5 6 7 8 9 10 11 12 13 14 15 16 17 18 19 20 21 22 23 24 25 26 27 28
000
ASUS41 KOKX 210808
RWROKX

REGIONAL WEATHER ROUNDUP
NATIONAL WEATHER SERVICE NEW YORK NY
300 AM EST TUE FEB 21 2017

NOTE: "FAIR" INDICATES FEW OR NO CLOUDS BELOW 12,000 FEET WITH NO
SIGNIFICANT WEATHER AND/OR OBSTRUCTIONS TO VISIBILITY.

NYZ071-072-176-178-NJZ106-104-210900-
NEW YORK CITY METRO AREA

CITY           SKY/WX    TMP DP  RH WIND       PRES   REMARKS
Central Park   CLEAR     37   9  31 NE6       30.38F WCI  32
Wall St Helipt NOT AVBL
LaGuardia APRT PTCLDY    38  13  35 NE8       30.36F WCI  32
Kennedy INTL   PTCLDY    34  15  46 NE8       30.38S WCI  27
Breezy Point     N/A     36 N/A N/A NE7         N/A  WCI  30
Newark/Liberty PTCLDY    33  15  47 NE8       30.36F WCI  26
Teterboro      CLEAR     35  16  45 N3        30.36F
$$

NYZ177-179-078>081-210900-
LONG ISLAND NEW YORK

CITY           SKY/WX    TMP DP  RH WIND       PRES   REMARKS
Jones Beach      N/A     34 N/A N/A NE9         N/A  WCI  26
Matinecock PT  NOT AVBL
Farmingdale    CLEAR     31  17  56 NE5       30.36F WCI  26
MacArthur/ISP  CLEAR     29  18  63 NE3       30.36S
Shirley        CLEAR     26  18  71 CALM      30.38S
Westhampton    CLEAR     19  13  77 CALM      30.39S
Southampton    NOT AVBL
Bridgehampton  NOT AVBL
East Hampton     N/A     25  18  72 CALM      30.37R
Montauk          N/A     36  19  50 N7        30.37R WCI  30
$$

NYZ052-065-067-210900-
HUDSON VALLEY

CITY           SKY/WX    TMP DP  RH WIND       PRES   REMARKS
White Plains   CLEAR     32   8  36 N5        30.33F WCI  27
Newburgh       CLEAR     27  19  74 CALM      30.37F
Montgomery     CLOUDY    24  18  77 CALM      30.35F
Poughkeepsie   CLOUDY    22  17  81 CALM      30.37F
Albany         CLOUDY    22  13  68 CALM      30.39F
$$

NJZ001-105-106-008-010-013-015-019>022-104-210900-
NEW JERSEY

CITY           SKY/WX    TMP DP  RH WIND       PRES   REMARKS
Newark/Liberty PTCLDY    33  15  47 NE8       30.36F WCI  26
Teterboro      CLEAR     35  16  45 N3        30.36F
Caldwell       CLOUDY    28  19  69 CALM      30.37F
Somerville     CLOUDY    25  18  74 CALM      30.34F
Linden         NOT AVBL
Sussex         CLOUDY    22  19  89 CALM      30.34F
Andover          N/A     25  20  81 CALM      30.33F
Trenton        CLOUDY    33  16  49 NE7       30.35R WCI  27
Millville      CLOUDY    34  20  56 NE6       30.33F WCI  29
Atlantic City  CLOUDY    32  19  58 NW3       30.34R
Wrightstown    CLEAR     29  17  60 NE6       30.32S WCI  23
Toms River     PTCLDY    23  16  74 CALM      30.35F
Belmar         CLEAR     34  17  50 NE6       30.35F WCI  29
$$

PAZ047>061-062-071-210900-
EASTERN PENNSYLVANIA

CITY           SKY/WX    TMP DP  RH WIND       PRES   REMARKS
Philadelphia   CLOUDY    36  16  44 NE3       30.36R
Allentown      CLOUDY    28  16  60 NE8       30.34F WCI  20
Scranton       PTCLDY    28  18  66 CALM      30.30S
$$

CTZ002-004>006-009-010-012-RIZ004-006-007-MAZ004-011-015-210900-
SOUTHERN NEW ENGLAND
 IN CT

CITY           SKY/WX    TMP DP  RH WIND       PRES   REMARKS
Bradley INTL   CLOUDY    26  12  55 N6        30.38S WCI  19
Hartford       CLOUDY    27  12  53 CALM      30.39S
Danbury        CLOUDY    22  15  75 CALM      30.36F
Wtrbury/Oxford CLOUDY    30   9  40 NE6       30.35F WCI  24
Bridgeport     CLEAR     33  11  39 N3        30.37F
Meriden        CLOUDY    24  15  68 CALM      30.38S
New Haven      CLEAR     29  14  53 N9        30.37S WCI  20
Chester          N/A     30  12  47 VRB5      30.36S WCI  25
Groton         CLEAR     30  14  51 N8        30.37R WCI  22
Wilimantic     CLEAR     22  17  81 CALM      30.38S

 IN RI

CITY           SKY/WX    TMP DP  RH WIND       PRES   REMARKS
Providence     CLEAR     30  13  49 NW7       30.37R WCI  23
Block Island   CLEAR     33  20  58 NE9       30.36R WCI  25
Westerly       CLEAR     31  13  47 N5        30.37R WCI  26
 IN MA

CITY           SKY/WX    TMP DP  RH WIND       PRES   REMARKS
Boston         CLEAR     31  15  52 N7        30.38R WCI  24
Worcester      CLOUDY    29   9  43 N6        30.33R WCI  23
Westfield      CLOUDY    19  12  74 CALM      30.37F
Provincetown   CLEAR     37  26  64 NE13      30.34S WCI  29
Nantucket      CLEAR     34  28  79 N8        30.31F WCI  27
$$

ANZ330-335-338-340-345-350-353-355-210900-
COASTAL MARINE OBSERVATIONS


STATION/POSITION TIME  SKY/WX   TEMP    WIND        PRES    VSBY  WAVE
                                AIR SEA DIR/SP/G                  HT/PER
                 (UTC)          (F)     (DEG/KT/KT) (MB)    (MI)  (FT/S)
NY HARB ENTRANCE 0650            40 42   40/ 14/ 17 1027.6          2/ 3
20 S FIRE ISLAND 0750            40 42   40/ 12/ 14 1027.5          2/ 4
GREAT SOUTH BAY  NOT AVBL
23 SSW MONTAUK P 0650            39 44              1027.8          2/ 6
15 E BARNEGAT LI 0730               44                N/A           4/ 5
HUDSON CANYON    0650               49              1026.7          4/ 4
KINGS POINT      0748            35 38              1028.1
EXECUTION ROCKS  NOT AVBL
CENTRAL LI SOUND 0715            36      20/ 10/ 12   N/A           1/ 2
EASTERN LI SOUND NOT AVBL
ROBBINS REEF     0748            38      60/ 12/ 14 1028.3
$$


>>>>>>>>>>>>>>>>>>>>>>>>>>>> KEY <<<<<<<<<<<<<<<<<<<<<<<<<<<
>                                                          <
>     SKY/WX - Sky Condition/Present Weather               <
>     TMP    - Temperature in Fahrenheit                   <
>     DP     - Dew Point in Fahrenheit                     <
>     RH     - Relative Humidity in Percent                <
>     WIND   - Direction (from) and Speed in MPH           <
>     PRES   - Mean Sea Level Pressure (inches of Hg)      <
>     WCI    - Wind Chill Index                            <
>     VSB    - VISIBILITY IN MILES                         <
>     HX     - HEAT INDEX                                  <
>     TC     - TEMPERATURE IN CELSIUS                      <
>     VRB    - VARIABLE WIND DIRECTION                     <
>                                                          <
>>>>>>>>>>>>>>>>>>>>>>>>>>>> KEY <<<<<<<<<<<<<<<<<<<<<<<<<<<




USA.gov is the U.S. government's official web portal to all federal, state and local government web resources and services.